[[{"header":{"parameterUnit":"m.s-1","parameterCategory":1,"la1":30.2991,"la2":30.254,"lo1":-89.0895,"lo2":-89.0444,"dy":0.0017,"dx":0.0017,"nx":28,"ny":28,"refTime":"2023-10-25T09:00:00:Z","depth":0,"parameterNumber":2,"parameterNumberName":"U-component_of_WINDS"},"data":[0,0,0,0,0,0,0,0,0,0,0,0,0,0,0,0,0,0,0,0,0,0,0,0,0,0,0,0,0,0,0,0,0,0,0,0,0,0,0,0,0,0,0,0,0,0,0,0,0,0,0,0,0,0,0,0,0,0,-6.7219,-6.722,0,-6.733,-6.7331,-6.7332,-6.7297,-6.7294,-6.7292,-6.729,-6.7398,-6.7403,-6.7408,0,0,0,0,0,0,0,0,0,0,0,0,0,-6.6974,-6.6979,-6.7219,-6.722,-6.7222,-6.733,-6.7331,-6.7333,-6.7297,-6.7294,-6.7291,-6.7289,-6.7396,-6.7402,-6.7408,0,0,0,0,0,0,0,0,0,0,0,0,0,-6.7082,-6.698,-6.7219,-6.7217,-6.7218,-6.7329,-6.7331,-6.7333,-6.7298,-6.7294,-6.7291,-6.7287,-6.7394,-6.7402,-6.7409,-6.7527,0,0,-6.7432,-6.7436,0,0,0,0,0,0,0,0,-6.7076,-6.7091,-6.7216,-6.7217,-6.7219,-6.7296,-6.7285,-6.7398,-6.7299,-6.7267,-6.729,-6.7286,-6.7366,-6.7376,-6.7404,-6.7532,-6.7537,-6.7433,-6.7438,-6.7441,-6.7443,0,0,0,0,0,0,0,-6.7069,-6.7086,-6.7263,-6.7218,-6.722,-6.721,-6.7222,-6.7306,-6.7335,-6.727,-6.7267,-6.7281,-6.7366,-6.7397,-6.7407,-6.7538,-6.7433,-6.744,-6.7444,-6.7447,-6.7771,-6.7775,0,0,0,0,0,0,-6.7061,-6.708,-6.7259,-6.7266,-6.7137,-6.7217,-6.723,-6.7275,-6.7334,-6.734,-6.7284,-6.7279,-6.7386,-6.7398,-6.741,-6.7553,-6.7441,-6.7448,-6.7452,-6.7767,-6.7772,-6.7776,0,0,0,0,0,0,-6.7056,-6.7077,-6.7255,-6.7173,-6.7195,-6.7225,-6.7276,-6.7279,-6.7309,-6.7345,-6.735,-6.731,-6.7384,-6.74,-6.7499,-6.7556,-6.7451,-6.7458,-6.7762,-6.7769,-6.7774,-6.7839,0,0,0,0,0,0,-6.7049,-6.7076,-6.7121,-6.7174,-6.7199,-6.7342,-6.7279,-6.7283,-6.7323,-6.7318,-6.7371,-6.7376,-6.7382,-6.7488,-6.7507,-6.7565,-6.7464,-6.7757,-6.7765,-6.7772,-6.7832,-6.7847,-6.7859,0,0,0,0,0,-6.704,-6.7133,-6.7123,-6.7145,-6.7256,-6.7346,-6.736,-6.7366,-6.7328,-6.7373,-6.7397,-6.7375,-6.7548,-6.7499,-6.7519,-6.7581,-6.7754,-6.7763,-6.7772,-6.7826,-6.7844,-6.7859,0,0,0,0,0,0,-6.7082,-6.7139,-6.7129,-6.7242,-6.729,-6.7339,-6.7396,-6.7384,-6.7442,-6.7434,-6.7438,-6.7451,-6.7553,-6.7577,-6.7521,-6.77,-6.7645,-6.7659,-6.7679,-6.7697,-6.771,-6.7701,-6.7471,0,0,0,0,0,-6.7105,-6.7174,-6.722,-6.7315,-6.734,-6.7365,-6.7403,-6.7405,-6.7453,-6.7472,-6.7503,-6.755,-6.7616,-6.7658,-6.772,-6.7837,-6.7848,-6.789,-6.7904,-6.7915,-6.7925,-6.7991,-6.801,-6.7806,-6.7806,-6.7806,0,0,-6.7151,-6.7192,-6.7234,-6.7325,-6.7361,-6.7432,-6.7381,-6.7457,-6.7509,-6.7483,-6.7579,-6.7605,-6.7658,-6.7767,-6.7817,-6.779,-6.7985,-6.7926,-6.7935,-6.7939,-6.8002,-6.8021,-6.8038,-6.7812,-6.7811,-6.781,0,0,-6.7272,-6.731,-6.7394,-6.7434,-6.7492,-6.7508,-6.7529,-6.7582,-6.7598,-6.7696,-6.7679,-6.7742,-6.7853,-6.7892,-6.7927,-6.8069,-6.805,-6.8089,-6.8159,-6.8223,-6.8239,-6.8253,-6.8303,-6.8321,-6.8101,-6.8101,-6.8101,0,-6.7321,-6.7428,-6.7438,-6.7517,-6.7558,-6.7542,-6.7627,-6.7664,-6.7739,-6.7767,-6.7738,-6.788,-6.7915,-6.8034,-6.8069,-6.8098,-6.8121,-6.8081,-6.8236,-6.8251,-6.8264,-6.8312,-6.8331,-6.8105,-6.8105,-6.8104,-6.8104,0,-6.7487,-6.7562,-6.7623,-6.7698,-6.7746,-6.7828,-6.785,-6.7897,-6.7897,-6.7917,-6.8018,-6.806,-6.8131,-6.816,-6.8158,-6.828,-6.8262,-6.8235,-6.8179,-6.8287,-6.8332,-6.8351,-6.8111,-6.811,-6.8108,-6.8107,0,0,-6.7631,-6.7716,-6.7737,-6.7773,-6.7839,-6.7896,-6.7979,-6.8051,-6.8091,-6.8145,-6.8213,-6.8312,-6.8289,-6.8328,-6.8331,-6.8388,-6.8498,-6.8354,-6.8355,-6.8378,-6.8636,-6.8654,-6.8675,-6.8489,-6.8492,-6.8495,-6.8631,0,-6.7756,-6.7902,-6.7915,-6.8045,-6.8115,-6.8104,-6.8176,-6.8224,-6.8247,-6.8309,-6.8333,-6.8403,-6.8367,-6.8391,-6.8447,-6.8473,-6.855,-6.8464,-6.8551,-6.8554,-6.8535,-6.8699,-6.8718,-6.8844,-6.8649,-6.8652,-6.8654,0,-6.792,-6.7982,-6.812,-6.8179,-6.8209,-6.8273,-6.8342,-6.8403,-6.8458,-6.847,-6.8518,-6.8515,-6.86,-6.8545,-6.8662,-6.8604,-6.8641,-6.866,-6.8665,-6.8671,-6.8608,-6.8707,-6.8884,-6.8902,-6.8682,-6.868,-6.8678,0,-6.801,-6.8128,-6.8227,-6.8258,-6.8329,-6.8375,-6.8407,-6.8459,-6.8503,-6.8564,-6.8593,-6.8662,-6.8699,-6.8753,-6.8769,-6.8728,-6.8886,-6.8832,-6.8898,-6.8898,-6.8928,-6.8926,-6.9111,-6.8957,-6.8957,-6.8956,-6.8956,0,-6.8147,-6.8231,-6.8269,-6.8329,-6.8424,-6.844,-6.8534,-6.8563,-6.8611,-6.8676,-6.8672,-6.8733,-6.8752,-6.8818,-6.8831,-6.8927,-6.8944,-6.8956,-6.8958,-6.8955,-6.8953,-6.8977,-6.8967,-6.8961,-6.896,-6.8959,-6.8958,0,-6.8261,-6.829,-6.8397,-6.8458,-6.8476,-6.8543,-6.8595,-6.8654,-6.8678,-6.8761,-6.8782,-6.8819,-6.8896,-6.8919,-6.9011,-6.902,-6.9132,-6.9127,-6.9113,-6.9113,-6.9177,-6.917,-6.9382,-6.941,-6.9239,-6.9241,-6.9242,0,-6.8345,-6.841,-6.8481,-6.8526,-6.856,-6.8632,-6.8678,-6.8699,-6.8747,-6.8818,-6.8868,-6.8945,-6.9006,-6.913,-6.9165,-6.9236,-6.9231,-6.9302,-6.9242,-6.9237,-6.9231,-6.9226,-6.9233,-6.9311,-6.9313,-6.9314,-6.9316,0,-6.849,-6.8503,-6.857,-6.8644,-6.87,-6.8759,-6.8815,-6.8852,-6.888,-6.8935,-6.9015,-6.9064,-6.9161,-6.9237,-6.931,-6.9342,-6.9334,-6.9335,-6.9354,-6.935,-6.9339,-6.9345,-6.9141,-6.9329,-6.9327,-6.9327,-6.9326,-6.9325,-6.8591,-6.8649,-6.8709,-6.8785,-6.8831,-6.8885,-6.8944,-6.8978,-6.9046,-6.9127,-6.9135,-6.9222,-6.9279,-6.9377,-6.9414,-6.9482,-6.9461,-6.9488,-6.9495,-6.9501,-6.9505,-6.9331,-6.9495,-6.9495,-6.9495,-6.9494,-6.9494,0,-6.8735,-6.8774,-6.8845,-6.8926,-6.8987,-6.8978,-6.9041,-6.9092,-6.9169,-6.9224,-6.9287,-6.9381,-6.9456,-6.9499,-6.9575,-6.9621,-6.9619,-6.964,-6.9635,-6.9643,-6.952,-6.9495,-6.964,-6.964,-6.964,-6.964,-6.964,-6.964,-6.8817,-6.8916,-6.8936,-6.9059,-6.9098,-6.9184,-6.9221,-6.9271,-6.9316,-6.9421,-6.9485,-6.9514,-6.9565,-6.9645,-6.9714,-6.9725,-6.9752,-6.9775,-6.9783,-6.9666,-6.9651,-6.9637,-6.9614,-6.9781,-6.9782,-6.9901,-6.9902,-6.9903]},{"header":{"parameterUnit":"m.s-1","parameterCategory":1,"la1":30.2991,"la2":30.254,"lo1":-89.0895,"lo2":-89.0444,"dy":0.0017,"dx":0.0017,"nx":28,"ny":28,"refTime":"2023-10-25T09:00:00:Z","depth":0,"parameterNumber":3,"parameterNumberName":"V-component_of_WINDS"},"data":[0,0,0,0,0,0,0,0,0,0,0,0,0,0,0,0,0,0,0,0,0,0,0,0,0,0,0,0,0,0,0,0,0,0,0,0,0,0,0,0,0,0,0,0,0,0,0,0,0,0,0,0,0,0,0,0,0,0,2.7061,2.7061,0,2.712,2.712,2.7121,2.7181,2.7182,2.7183,2.7184,2.7236,2.7236,2.7237,0,0,0,0,0,0,0,0,0,0,0,0,0,2.6995,2.6996,2.7061,2.7061,2.7062,2.712,2.712,2.7121,2.7181,2.7182,2.7183,2.7184,2.7235,2.7236,2.7237,0,0,0,0,0,0,0,0,0,0,0,0,0,2.7035,2.6996,2.7061,2.7099,2.7103,2.7119,2.712,2.7121,2.7181,2.7182,2.7183,2.7185,2.7235,2.7236,2.7237,2.7217,0,0,2.724,2.724,0,0,0,0,0,0,0,0,2.7033,2.7038,2.7093,2.7097,2.7101,2.7145,2.7116,2.7153,2.7181,2.7151,2.7184,2.7185,2.7204,2.7207,2.7215,2.722,2.7222,2.724,2.724,2.7241,2.7241,0,0,0,0,0,0,0,2.703,2.7036,2.7084,2.7093,2.7099,2.7112,2.7119,2.7124,2.7169,2.7154,2.7158,2.7165,2.7206,2.7214,2.7217,2.7223,2.724,2.7241,2.7241,2.7242,2.7217,2.7216,0,0,0,0,0,0,2.7022,2.7033,2.7082,2.7086,2.707,2.7112,2.712,2.7129,2.717,2.7177,2.7164,2.7168,2.7212,2.7216,2.7219,2.7201,2.7241,2.7242,2.7242,2.7218,2.7217,2.7216,0,0,0,0,0,0,2.7021,2.7026,2.708,2.7061,2.7068,2.7112,2.7122,2.713,2.7138,2.7177,2.7185,2.7164,2.7213,2.7218,2.7219,2.7204,2.7242,2.7243,2.722,2.7218,2.7216,2.7163,0,0,0,0,0,0,2.7019,2.7025,2.7019,2.706,2.7069,2.7079,2.7121,2.713,2.714,2.7146,2.718,2.7186,2.7215,2.7217,2.722,2.7206,2.7244,2.7221,2.7219,2.7217,2.7167,2.716,2.7154,0,0,0,0,0,2.7016,2.6999,2.7018,2.7024,2.7063,2.7078,2.7083,2.7119,2.7139,2.7133,2.7159,2.7185,2.7205,2.7217,2.722,2.7206,2.7222,2.722,2.7217,2.7169,2.7161,2.7154,0,0,0,0,0,0,2.6951,2.7005,2.7027,2.7023,2.7046,2.7089,2.7082,2.7109,2.7124,2.7128,2.7169,2.7176,2.7173,2.7189,2.7201,2.7191,2.7218,2.7215,2.718,2.7173,2.7167,2.7163,2.7244,0,0,0,0,0,2.6937,2.6948,2.6993,2.6985,2.6996,2.7037,2.7045,2.7071,2.7095,2.7104,2.713,2.7151,2.7162,2.7168,2.718,2.717,2.7178,2.7162,2.7156,2.715,2.7148,2.7146,2.714,2.7207,2.7207,2.7207,0,0,2.6907,2.6938,2.6941,2.6973,2.6994,2.7003,2.7044,2.7051,2.7058,2.7104,2.7109,2.7128,2.7154,2.715,2.7149,2.7163,2.7132,2.7147,2.7143,2.7143,2.7143,2.7136,2.7131,2.7205,2.7205,2.7206,0,0,2.6857,2.688,2.6879,2.69,2.6933,2.6961,2.696,2.7,2.7016,2.7021,2.7058,2.7065,2.7083,2.7101,2.7112,2.7074,2.7099,2.7076,2.7044,2.7042,2.7036,2.7032,2.702,2.7015,2.7074,2.7073,2.7073,0,2.6814,2.6831,2.6873,2.688,2.6893,2.694,2.6938,2.6956,2.6989,2.6997,2.7014,2.704,2.706,2.7063,2.7054,2.7061,2.7062,2.7072,2.7034,2.703,2.7026,2.7015,2.701,2.7071,2.7071,2.7071,2.7072,0,2.6778,2.679,2.6784,2.682,2.6833,2.6834,2.6876,2.6884,2.6909,2.6935,2.6941,2.6968,2.6988,2.699,2.7013,2.6996,2.7005,2.7027,2.7055,2.7017,2.7007,2.7003,2.7067,2.7068,2.7068,2.7069,0,0,2.6686,2.675,2.6747,2.6766,2.6807,2.6816,2.682,2.6843,2.685,2.6872,2.6877,2.6893,2.6916,2.6928,2.6954,2.6952,2.6923,2.6975,2.6976,2.6966,2.6908,2.6892,2.6886,2.694,2.694,2.6939,2.6906,0,2.6645,2.6659,2.6698,2.6699,2.6711,2.6758,2.6762,2.6787,2.6812,2.6824,2.6851,2.6863,2.689,2.6899,2.6899,2.6926,2.6912,2.6929,2.6944,2.6944,2.6938,2.6881,2.6863,2.6831,2.6902,2.6902,2.6901,0,2.6597,2.6621,2.6625,2.667,2.6676,2.6679,2.6706,2.6717,2.6747,2.6765,2.6782,2.6812,2.6819,2.6845,2.6855,2.6867,2.6875,2.689,2.6889,2.6892,2.6921,2.6883,2.6821,2.6817,2.6895,2.6896,2.6896,0,2.6532,2.6565,2.6573,2.6587,2.6638,2.664,2.6661,2.6693,2.6705,2.6727,2.6736,2.6757,2.6769,2.6784,2.6819,2.6835,2.6826,2.6854,2.6841,2.684,2.6837,2.6837,2.6776,2.6841,2.6841,2.6841,2.6841,0,2.6482,2.6482,2.6545,2.655,2.6552,2.6598,2.6598,2.6623,2.6652,2.6661,2.6701,2.6709,2.6754,2.6767,2.6794,2.6799,2.6803,2.6818,2.6826,2.6815,2.6814,2.6822,2.6825,2.684,2.684,2.684,2.684,0,2.641,2.6452,2.6464,2.6513,2.6526,2.6526,2.6568,2.6573,2.6602,2.6614,2.6619,2.6663,2.6681,2.6718,2.6743,2.6762,2.6761,2.6773,2.6752,2.6757,2.6742,2.6744,2.6685,2.6681,2.6747,2.6746,2.6745,0,2.6376,2.6378,2.643,2.6441,2.6462,2.6478,2.6493,2.6538,2.6551,2.6588,2.6589,2.6611,2.663,2.6655,2.6689,2.6709,2.6723,2.6702,2.6726,2.6717,2.6725,2.6725,2.6726,2.6696,2.6695,2.6694,2.6694,0,2.6311,2.6333,2.6354,2.6383,2.6401,2.6425,2.6451,2.6457,2.6508,2.652,2.6541,2.6556,2.6586,2.6607,2.6633,2.6653,2.6682,2.6686,2.6684,2.6674,2.6663,2.6671,2.6738,2.6687,2.6688,2.6688,2.6688,2.6689,2.6258,2.6264,2.6302,2.6325,2.6351,2.6375,2.6384,2.6416,2.6435,2.6465,2.649,2.6509,2.654,2.658,2.6598,2.6612,2.6626,2.6623,2.6623,2.6622,2.6618,2.666,2.6617,2.6617,2.6617,2.6618,2.6618,0,2.6197,2.6225,2.6246,2.6284,2.6302,2.6332,2.6363,2.6375,2.6393,2.6421,2.6441,2.6466,2.6487,2.6524,2.6548,2.6552,2.6566,2.6557,2.6557,2.6562,2.6603,2.6603,2.6546,2.6546,2.6546,2.6546,2.6546,2.6546,2.6168,2.618,2.6207,2.6232,2.626,2.6282,2.6297,2.632,2.6344,2.6371,2.639,2.6415,2.6447,2.6475,2.6495,2.6506,2.6513,2.65,2.6514,2.6552,2.6559,2.6565,2.6565,2.6501,2.6501,2.6472,2.6472,2.6471]}]]